• In Belarus
  • List of Countries
  • For 7 days
  • Water Temperature
  • Satellite Maps
  • Weather Map
  • Weather Widgets
  • user-avatar
    Login

    Hourly Weather Borovec

    Today, 21 January, Sunday

    Time Temperature Precipitation Wind Pressure Humidity
    00:00 -1°C° 0 mm 1 mps 706 mmHg 90%
    01:00 -1°C° 0 mm 1 mps 706 mmHg 88%
    02:00 -1°C° 0 mm 1 mps 706 mmHg 85%
    03:00 -1°C° 0 mm 1 mps 706 mmHg 83%
    04:00 -1°C° 0 mm 1 mps 705 mmHg 81%
    05:00 -1°C° 0 mm 1 mps 705 mmHg 79%
    06:00 0°C° 0 mm 1 mps 705 mmHg 77%
    07:00 0°C° 0 mm 1 mps 705 mmHg 76%
    08:00 +1°C° 0 mm 1 mps 704 mmHg 75%
    09:00 +2°C° 0.1 mm 1 mps 704 mmHg 77%
    10:00 +3°C° 0.1 mm 1 mps 704 mmHg 78%
    11:00 +3°C° 0.1 mm 2 mps 704 mmHg 80%
    12:00 +5°C° 0.2 mm 1 mps 703 mmHg 82%
    13:00 +5°C° 0.2 mm 1 mps 703 mmHg 84%
    14:00 +5°C° 0.2 mm 1 mps 702 mmHg 87%
    15:00 +5°C° 0.1 mm 1 mps 701 mmHg 88%
    16:00 +4°C° 0.1 mm 1 mps 701 mmHg 89%
    17:00 +4°C° 0.1 mm 1 mps 700 mmHg 90%
    18:00 +4°C° 0.1 mm 1 mps 700 mmHg 91%
    19:00 +3°C° 0.1 mm 1 mps 700 mmHg 92%
    20:00 +3°C° 0.1 mm 1 mps 699 mmHg 93%
    21:00 +2°C° 1 mm 1 mps 700 mmHg 93%
    22:00 +1°C° 1 mm 2 mps 700 mmHg 94%
    23:00 +1°C° 1 mm 2 mps 700 mmHg 94%

    Tomorrow, 22 January, Monday

    Time Temperature Precipitation Wind Pressure Humidity
    00:00 +1°C° 1.4 mm 2 mps 700 mmHg 94%
    01:00 0°C° 1.4 mm 3 mps 700 mmHg 95%
    02:00 -1°C° 1.4 mm 3 mps 701 mmHg 95%
    03:00 -1°C° 0.4 mm 3 mps 701 mmHg 94%
    04:00 -2°C° 0.4 mm 3 mps 701 mmHg 93%
    05:00 -2°C° 0.4 mm 3 mps 702 mmHg 92%
    06:00 -2°C° 0.1 mm 3 mps 702 mmHg 91%
    07:00 -4°C° 0.1 mm 3 mps 702 mmHg 91%
    08:00 -4°C° 0.1 mm 3 mps 703 mmHg 90%
    09:00 -4°C° 0 mm 3 mps 703 mmHg 88%
    10:00 -3°C° 0 mm 4 mps 703 mmHg 85%
    11:00 -2°C° 0 mm 4 mps 704 mmHg 83%
    12:00 -2°C° 0 mm 4 mps 704 mmHg 82%
    13:00 -2°C° 0 mm 4 mps 704 mmHg 82%
    14:00 -1°C° 0 mm 4 mps 704 mmHg 81%
    15:00 -2°C° 0 mm 4 mps 704 mmHg 82%
    16:00 -2°C° 0 mm 3 mps 705 mmHg 84%
    17:00 -2°C° 0 mm 3 mps 705 mmHg 85%
    18:00 -4°C° 0 mm 3 mps 706 mmHg 86%
    19:00 -4°C° 0 mm 2 mps 706 mmHg 88%
    20:00 -5°C° 0 mm 2 mps 707 mmHg 89%
    21:00 -6°C° 0 mm 2 mps 707 mmHg 89%
    22:00 -6°C° 0 mm 2 mps 708 mmHg 89%
    23:00 -6°C° 0 mm 2 mps 708 mmHg 89%

    Day after tomorrow, 23 January, Tuesday

    Time Temperature Precipitation Wind Pressure Humidity
    00:00 -6°C° 0 mm 2 mps 709 mmHg 89%
    01:00 -7°C° 0 mm 2 mps 709 mmHg 90%
    02:00 -7°C° 0 mm 2 mps 709 mmHg 90%
    03:00 -6°C° 0 mm 1 mps 709 mmHg 90%
    04:00 -6°C° 0 mm 1 mps 710 mmHg 90%
    05:00 -6°C° 0 mm 1 mps 710 mmHg 90%
    06:00 -6°C° 0 mm 1 mps 710 mmHg 89%
    07:00 -6°C° 0 mm 1 mps 711 mmHg 89%
    08:00 -6°C° 0 mm 1 mps 711 mmHg 89%
    09:00 -4°C° 0 mm 1 mps 712 mmHg 85%
    10:00 -2°C° 0 mm 1 mps 713 mmHg 82%
    11:00 0°C° 0 mm 1 mps 714 mmHg 78%
    12:00 0°C° 0 mm 1 mps 714 mmHg 78%
    13:00 +1°C° 0 mm 1 mps 714 mmHg 77%
    14:00 +1°C° 0 mm 1 mps 714 mmHg 76%
    15:00 0°C° 0 mm 1 mps 714 mmHg 80%
    16:00 0°C° 0 mm 1 mps 715 mmHg 84%
    17:00 -1°C° 0 mm 1 mps 715 mmHg 87%
    18:00 -2°C° 0 mm 1 mps 716 mmHg 89%
    19:00 -3°C° 0 mm 1 mps 716 mmHg 91%
    20:00 -3°C° 0 mm 1 mps 717 mmHg 93%
    21:00 -4°C° 0 mm 1 mps 717 mmHg 92%
    22:00 -4°C° 0 mm 1 mps 718 mmHg 92%
    23:00 -6°C° 0 mm 1 mps 718 mmHg 92%

    24 January, Wednesday

    Time Temperature Precipitation Wind Pressure Humidity
    00:00 -6°C° 0 mm 1 mps 718 mmHg 91%
    01:00 -6°C° 0 mm 1 mps 719 mmHg 90%
    02:00 -6°C° 0 mm 1 mps 719 mmHg 90%
    03:00 -6°C° 0 mm 1 mps 719 mmHg 89%
    04:00 -7°C° 0 mm 1 mps 719 mmHg 88%
    05:00 -7°C° 0 mm 1 mps 719 mmHg 87%
    06:00 -7°C° 0 mm 1 mps 720 mmHg 86%
    07:00 -7°C° 0 mm 1 mps 720 mmHg 85%
    08:00 -7°C° 0 mm 1 mps 720 mmHg 84%
    09:00 -4°C° 0 mm 1 mps 721 mmHg 80%
    10:00 -2°C° 0 mm 1 mps 721 mmHg 76%
    11:00 -1°C° 0 mm 1 mps 722 mmHg 72%
    12:00 0°C° 0 mm 1 mps 721 mmHg 70%
    13:00 +1°C° 0 mm 1 mps 721 mmHg 69%
    14:00 +1°C° 0 mm 1 mps 721 mmHg 67%
    15:00 0°C° 0 mm 1 mps 720 mmHg 70%
    16:00 -1°C° 0 mm 1 mps 720 mmHg 74%
    17:00 -2°C° 0 mm 1 mps 720 mmHg 78%
    18:00 -3°C° 0 mm 1 mps 720 mmHg 78%
    19:00 -4°C° 0 mm 1 mps 720 mmHg 78%
    20:00 -6°C° 0 mm 1 mps 720 mmHg 78%
    21:00 -6°C° 0 mm 1 mps 720 mmHg 75%
    22:00 -6°C° 0 mm 1 mps 720 mmHg 73%
    23:00 -7°C° 0 mm 1 mps 720 mmHg 70%

    25 January, Thursday

    Time Temperature Precipitation Wind Pressure Humidity
    00:00 -7°C° 0 mm 1 mps 719 mmHg 68%
    01:00 -7°C° 0 mm 1 mps 719 mmHg 66%
    02:00 -7°C° 0 mm 1 mps 719 mmHg 65%
    03:00 -7°C° 0 mm 1 mps 718 mmHg 64%
    04:00 -7°C° 0 mm 1 mps 718 mmHg 62%
    05:00 -7°C° 0 mm 1 mps 717 mmHg 61%
    06:00 -7°C° 0 mm 1 mps 717 mmHg 60%
    07:00 -7°C° 0 mm 1 mps 717 mmHg 60%
    08:00 -7°C° 0 mm 1 mps 717 mmHg 59%
    09:00 -4°C° 0 mm 1 mps 717 mmHg 58%
    10:00 -2°C° 0 mm 1 mps 717 mmHg 56%
    11:00 0°C° 0 mm 1 mps 717 mmHg 55%
    12:00 +1°C° 0 mm 1 mps 716 mmHg 55%
    13:00 +2°C° 0 mm 1 mps 716 mmHg 55%
    14:00 +3°C° 0 mm 1 mps 715 mmHg 55%
    15:00 +2°C° 0 mm 1 mps 715 mmHg 60%
    16:00 0°C° 0 mm 1 mps 714 mmHg 65%
    17:00 -1°C° 0 mm 1 mps 714 mmHg 70%
    18:00 -2°C° 0 mm 1 mps 714 mmHg 70%
    19:00 -3°C° 0 mm 1 mps 715 mmHg 70%
    20:00 -4°C° 0 mm 1 mps 715 mmHg 71%
    21:00 -4°C° 0 mm 1 mps 715 mmHg 70%
    22:00 -6°C° 0 mm 1 mps 715 mmHg 69%
    23:00 -6°C° 0 mm 1 mps 715 mmHg 68%

    26 January, Friday

    Time Temperature Precipitation Wind Pressure Humidity
    00:00 -6°C° 0 mm 1 mps 715 mmHg 68%
    01:00 -6°C° 0 mm 1 mps 715 mmHg 68%
    02:00 -7°C° 0 mm 1 mps 715 mmHg 68%
    03:00 -7°C° 0 mm 1 mps 715 mmHg 67%
    04:00 -7°C° 0 mm 1 mps 715 mmHg 67%
    05:00 -7°C° 0 mm 1 mps 715 mmHg 67%
    06:00 -8°C° 0 mm 1 mps 716 mmHg 67%
    07:00 -8°C° 0 mm 1 mps 716 mmHg 67%
    08:00 -8°C° 0 mm 1 mps 716 mmHg 67%
    09:00 -6°C° 0 mm 1 mps 716 mmHg 65%
    10:00 -3°C° 0 mm 1 mps 717 mmHg 63%
    11:00 -1°C° 0 mm 1 mps 717 mmHg 60%
    12:00 0°C° 0 mm 1 mps 717 mmHg 60%
    13:00 +1°C° 0 mm 1 mps 717 mmHg 60%
    14:00 +2°C° 0 mm 1 mps 716 mmHg 61%
    15:00 +1°C° 0 mm 1 mps 716 mmHg 65%
    16:00 0°C° 0 mm 1 mps 716 mmHg 70%
    17:00 -1°C° 0 mm 1 mps 716 mmHg 75%
    18:00 -2°C° 0 mm 1 mps 716 mmHg 75%
    19:00 -3°C° 0 mm 1 mps 716 mmHg 75%
    20:00 -4°C° 0 mm 1 mps 716 mmHg 75%
    21:00 -4°C° 0 mm 1 mps 716 mmHg 74%
    22:00 -4°C° 0 mm 1 mps 717 mmHg 72%
    23:00 -4°C° 0 mm 1 mps 717 mmHg 70%
    Show more